{"data":{"norad_id":54805,"epoch":"2026-09-20T10:27:01.608192Z","epoch_age_seconds":98991,"freshness":"FRESH","line1":"1 54805U 22175AZ  26263.43543528 -.00001907  00000+0 -10420-3 0  9990","line2":"2 54805  53.1580 234.8565 0001423  72.7349 287.3797 15.08012283209522","mean_motion":15.08012283,"eccentricity":0.0001423,"inclination_deg":53.158,"raan_deg":234.8565,"arg_perigee_deg":72.7349,"mean_anomaly_deg":287.3797,"bstar":-0.0001042,"rev_number":20952,"period_min":95.489938393294,"perigee_km":541.28977128709,"apogee_km":543.25932041304,"semimajor_km":6920.4115458501,"source":"CELESTRAK","updated_at":"2026-09-21T09:00:33.130261Z"}}